Regional Weather Roundup
Issued by NWS Midland/Odessa, TX

Skip options and go directly to product.
Home | Oldest Version | Previous Version | Current Version | All | Graphics & Text | Save Text | Print | Product List | Glossary On

Skip product version selection by date and time.   
786
ASUS44 KMAF 011410
RWRMAF
MIDLAND AREA WEATHER ROUNDUP
NATIONAL WEATHER SERVICE MIDLAND TX
900 AM CDT MON SEP 01 2014

...IN SOUTHWEST TEXAS AND SOUTHEAST NEW MEXICO...

CITY           SKY/WX    TMP DP  RH WIND       PRES   REMARKS
ALPINE         SUNNY     78  58  49 CALM      30.13R
ANDREWS        FAIR      78  62  58 S14G22    29.94S
ARTESIA        NOT AVBL
BIG SPRING     SUNNY     79  68  68 S22       29.95R
CARLSBAD       SUNNY     77  60  55 CALM      29.95R
DRYDEN           N/A     83  69  62 SE14      29.94
FORT STOCKTON  SUNNY     79  62  56 S9        29.95R
GUAD PASS      SUNNY     71  48  43 SW13      30.13R
HOBBS          SUNNY     75  63  64 S8        29.98R
MARFA          SUNNY     72  59  64 NE3       30.13R
MIDLAND AIRPK  SUNNY     80  65  59 S12G23    29.94R
MIDLAND INTL   SUNNY     79  64  60 S16G23    29.93S
ODESSA         SUNNY     79  63  57 S17       29.94S
PECOS          SUNNY     76  60  58 CALM      29.91S
PRESIDIO       FAIR      82  61  49 N6        29.97R
SEMINOLE       SUNNY     78  62  58 S13       29.95S
SNYDER         SUNNY     77  69  76 S17G23    29.93R
WINK           SUNNY     80  63  55 S16       29.91R
$$
...OTHER STATIONS IN TEXAS...

CITY           SKY/WX    TMP DP  RH WIND       PRES   REMARKS
ABILENE        MOSUNNY   79  69  71 S16G25    29.91S
AMARILLO       SUNNY     69  58  67 N9        29.95R
AUSTIN         PTSUNNY   82  75  79 S10       29.95R
BROWNSVILLE    MOSUNNY   84  79  85 SE5       29.91R
CORPUS CHRISTI MOSUNNY   83  80  91 SE8       29.92S
DALLAS FTW     PTSUNNY   81  72  74 S22       29.91S
DEL RIO        MOSUNNY   80  71  74 SE14      29.91S
EL PASO        MOSUNNY   75  47  36 E3        30.01R
HOUSTON INT    MOSUNNY   81  79  94 CALM      29.96S
LUBBOCK        SUNNY     78  62  57 SW17      29.92R
SAN ANGELO     SUNNY     79  69  71 S20G26    29.93R
SAN ANTONIO    PTSUNNY   81  74  79 S12       29.96R
WACO           CLOUDY    80  74  81 S16       29.93S
WICHITA FALLS  NOT AVBL
$$
...OTHER LOCATIONS IN NEW MEXICO...

CITY           SKY/WX    TMP DP  RH WIND       PRES   REMARKS
ALAMAGORDO     SUNNY     72  43  35 CALM      30.04R
ALBUQUERQUE    MOSUNNY   67  41  38 SE8       30.13R
CANNON AFB     SUNNY     70  57  63 W9        29.99R
CLOVIS           N/A     72  57  60 NW9       30.01R
HOLLOMAN AFB   SUNNY     70  42  35 SE2       30.02R
ROSWELL        SUNNY     71  45  39 CALM      29.98R
RUIDOSO        SUNNY     68  39  34 W8        30.24S
SANTA FE       SUNNY     65  40  39 E3        30.17R
TRUTH OR CONSE SUNNY     73  43  33 NW6       30.09R
TUCUMCARI      SUNNY     70  54  56 N9        29.99R
$$

USA.gov is the U.S. government's official web portal to all federal, state and local government web resources and services.